Hourly Weather Bolshie Leskovichi

Today, 20 June, Sunday

Time Temperature Precipitation Wind Pressure Humidity
00:00 +19°C° 0 mm 2 mps 750 mmHg 88%
01:00 +19°C° 0 mm 2 mps 750 mmHg 89%
02:00 +19°C° 0 mm 1 mps 750 mmHg 90%
03:00 +18°C° 0 mm 2 mps 750 mmHg 90%
04:00 +18°C° 0 mm 2 mps 750 mmHg 91%
05:00 +18°C° 0 mm 2 mps 749 mmHg 91%
06:00 +20°C° 0 mm 3 mps 749 mmHg 87%
07:00 +22°C° 0 mm 3 mps 749 mmHg 84%
08:00 +23°C° 0 mm 4 mps 749 mmHg 80%
09:00 +25°C° 0 mm 4 mps 749 mmHg 75%
10:00 +27°C° 0 mm 5 mps 749 mmHg 70%
11:00 +28°C° 0 mm 5 mps 749 mmHg 66%
12:00 +28°C° 0.1 mm 5 mps 749 mmHg 64%
13:00 +29°C° 0.1 mm 5 mps 749 mmHg 61%
14:00 +29°C° 0.1 mm 5 mps 748 mmHg 59%
15:00 +29°C° 0.3 mm 4 mps 748 mmHg 64%
16:00 +28°C° 0.3 mm 3 mps 748 mmHg 68%
17:00 +28°C° 0.3 mm 3 mps 748 mmHg 73%
18:00 +27°C° 0.2 mm 3 mps 747 mmHg 76%
19:00 +26°C° 0.2 mm 3 mps 747 mmHg 79%
20:00 +25°C° 0.2 mm 4 mps 747 mmHg 82%
21:00 +22°C° 0 mm 4 mps 747 mmHg 84%
22:00 +21°C° 0 mm 4 mps 747 mmHg 85%
23:00 +20°C° 0 mm 3 mps 747 mmHg 87%

Tomorrow, 21 June, Monday

Time Temperature Precipitation Wind Pressure Humidity
00:00 +20°C° 0 mm 3 mps 747 mmHg 89%
01:00 +19°C° 0 mm 3 mps 747 mmHg 91%
02:00 +18°C° 0 mm 3 mps 747 mmHg 93%
03:00 +18°C° 0 mm 3 mps 747 mmHg 94%
04:00 +18°C° 0 mm 3 mps 747 mmHg 94%
05:00 +18°C° 0 mm 3 mps 747 mmHg 95%
06:00 +19°C° 0 mm 3 mps 747 mmHg 91%
07:00 +21°C° 0 mm 4 mps 747 mmHg 86%
08:00 +22°C° 0 mm 4 mps 747 mmHg 82%
09:00 +23°C° 0.1 mm 5 mps 747 mmHg 77%
10:00 +25°C° 0.1 mm 5 mps 746 mmHg 72%
11:00 +27°C° 0.1 mm 5 mps 746 mmHg 68%
12:00 +27°C° 0.2 mm 5 mps 746 mmHg 67%
13:00 +27°C° 0.2 mm 5 mps 746 mmHg 65%
14:00 +27°C° 0.2 mm 5 mps 746 mmHg 64%
15:00 +27°C° 0.2 mm 4 mps 745 mmHg 67%
16:00 +27°C° 0.2 mm 3 mps 745 mmHg 69%
17:00 +27°C° 0.2 mm 3 mps 745 mmHg 71%
18:00 +26°C° 0.1 mm 3 mps 745 mmHg 75%
19:00 +25°C° 0.1 mm 3 mps 745 mmHg 80%
20:00 +24°C° 0.1 mm 3 mps 745 mmHg 84%
21:00 +22°C° 0 mm 3 mps 745 mmHg 86%
22:00 +21°C° 0 mm 3 mps 745 mmHg 88%
23:00 +20°C° 0 mm 3 mps 745 mmHg 91%

Day after tomorrow, 22 June, Tuesday

Time Temperature Precipitation Wind Pressure Humidity
00:00 +20°C° 0 mm 3 mps 745 mmHg 92%
01:00 +20°C° 0 mm 3 mps 745 mmHg 93%
02:00 +19°C° 0 mm 3 mps 745 mmHg 94%
03:00 +19°C° 0 mm 3 mps 745 mmHg 94%
04:00 +19°C° 0 mm 3 mps 745 mmHg 95%
05:00 +19°C° 0 mm 3 mps 745 mmHg 95%
06:00 +21°C° 0 mm 3 mps 745 mmHg 89%
07:00 +22°C° 0 mm 3 mps 745 mmHg 84%
08:00 +25°C° 0 mm 4 mps 746 mmHg 78%
09:00 +26°C° 0 mm 4 mps 746 mmHg 73%
10:00 +27°C° 0 mm 4 mps 746 mmHg 68%
11:00 +29°C° 0 mm 5 mps 746 mmHg 62%
12:00 +29°C° 0 mm 5 mps 746 mmHg 59%
13:00 +30°C° 0 mm 4 mps 746 mmHg 56%
14:00 +32°C° 0 mm 4 mps 746 mmHg 53%
15:00 +32°C° 0 mm 4 mps 746 mmHg 56%
16:00 +31°C° 0 mm 3 mps 746 mmHg 58%
17:00 +31°C° 0 mm 3 mps 746 mmHg 60%
18:00 +29°C° 0 mm 2 mps 746 mmHg 65%
19:00 +28°C° 0 mm 2 mps 746 mmHg 69%
20:00 +26°C° 0 mm 1 mps 746 mmHg 74%
21:00 +25°C° 0 mm 1 mps 746 mmHg 76%
22:00 +25°C° 0 mm 1 mps 746 mmHg 78%
23:00 +24°C° 0 mm 1 mps 746 mmHg 80%

23 June, Wednesday

Time Temperature Precipitation Wind Pressure Humidity
00:00 +23°C° 0 mm 1 mps 746 mmHg 81%
01:00 +23°C° 0 mm 1 mps 746 mmHg 82%
02:00 +23°C° 0 mm 1 mps 746 mmHg 83%
03:00 +22°C° 0.1 mm 1 mps 747 mmHg 85%
04:00 +21°C° 0.1 mm 2 mps 747 mmHg 86%
05:00 +21°C° 0.1 mm 2 mps 747 mmHg 87%
06:00 +23°C° 0 mm 2 mps 747 mmHg 84%
07:00 +25°C° 0 mm 2 mps 747 mmHg 82%
08:00 +26°C° 0 mm 2 mps 748 mmHg 79%
09:00 +28°C° 0 mm 2 mps 748 mmHg 75%
10:00 +29°C° 0 mm 3 mps 748 mmHg 70%
11:00 +30°C° 0 mm 3 mps 748 mmHg 66%
12:00 +31°C° 0 mm 3 mps 748 mmHg 63%
13:00 +31°C° 0 mm 3 mps 748 mmHg 59%
14:00 +33°C° 0 mm 3 mps 748 mmHg 56%
15:00 +33°C° 0 mm 3 mps 748 mmHg 57%
16:00 +32°C° 0 mm 2 mps 748 mmHg 58%
17:00 +31°C° 0 mm 2 mps 748 mmHg 59%
18:00 +30°C° 0 mm 2 mps 748 mmHg 64%
19:00 +29°C° 0 mm 2 mps 748 mmHg 68%
20:00 +27°C° 0 mm 1 mps 748 mmHg 73%
21:00 +26°C° 0.5 mm 1 mps 748 mmHg 76%
22:00 +25°C° 0.5 mm 1 mps 748 mmHg 79%
23:00 +24°C° 0.5 mm 1 mps 748 mmHg 82%

24 June, Thursday

Time Temperature Precipitation Wind Pressure Humidity
00:00 +24°C° 0 mm 1 mps 748 mmHg 83%
01:00 +24°C° 0 mm 1 mps 748 mmHg 85%
02:00 +23°C° 0 mm 1 mps 748 mmHg 86%
03:00 +23°C° 0 mm 1 mps 748 mmHg 87%
04:00 +23°C° 0 mm 1 mps 748 mmHg 88%
05:00 +23°C° 0 mm 1 mps 749 mmHg 89%
06:00 +24°C° 0 mm 1 mps 749 mmHg 86%
07:00 +25°C° 0 mm 1 mps 749 mmHg 82%
08:00 +27°C° 0 mm 1 mps 749 mmHg 78%
09:00 +28°C° 0 mm 1 mps 749 mmHg 74%
10:00 +29°C° 0 mm 1 mps 749 mmHg 70%
11:00 +30°C° 0 mm 1 mps 749 mmHg 65%
12:00 +31°C° 0.2 mm 1 mps 749 mmHg 63%
13:00 +31°C° 0.2 mm 1 mps 749 mmHg 61%
14:00 +32°C° 0.2 mm 1 mps 749 mmHg 59%
15:00 +31°C° 0.8 mm 1 mps 749 mmHg 62%
16:00 +31°C° 0.8 mm 2 mps 749 mmHg 65%
17:00 +30°C° 0.8 mm 2 mps 749 mmHg 68%
18:00 +29°C° 0.3 mm 1 mps 748 mmHg 71%
19:00 +28°C° 0.3 mm 1 mps 748 mmHg 74%
20:00 +27°C° 0.3 mm 1 mps 748 mmHg 77%
21:00 +25°C° 0.8 mm 1 mps 748 mmHg 83%
22:00 +23°C° 0.8 mm 2 mps 748 mmHg 88%
23:00 +21°C° 0.8 mm 3 mps 748 mmHg 93%

25 June, Friday

Time Temperature Precipitation Wind Pressure Humidity
00:00 +20°C° 0.1 mm 3 mps 748 mmHg 93%
01:00 +20°C° 0.1 mm 3 mps 748 mmHg 92%
02:00 +20°C° 0.1 mm 3 mps 747 mmHg 92%
03:00 +20°C° 0.2 mm 3 mps 747 mmHg 92%
04:00 +19°C° 0.2 mm 2 mps 747 mmHg 93%
05:00 +19°C° 0.2 mm 2 mps 747 mmHg 94%
06:00 +21°C° 0.1 mm 2 mps 747 mmHg 90%
07:00 +24°C° 0.1 mm 3 mps 747 mmHg 87%
08:00 +25°C° 0.1 mm 3 mps 747 mmHg 84%
09:00 +27°C° 0.2 mm 3 mps 747 mmHg 79%
10:00 +28°C° 0.2 mm 4 mps 747 mmHg 74%
11:00 +30°C° 0.2 mm 4 mps 747 mmHg 69%
12:00 +32°C° 0.5 mm 4 mps 746 mmHg 67%
13:00 +32°C° 0.5 mm 5 mps 746 mmHg 64%
14:00 +33°C° 0.5 mm 5 mps 746 mmHg 62%
15:00 +32°C° 2.3 mm 5 mps 746 mmHg 67%
16:00 +29°C° 2.3 mm 5 mps 746 mmHg 73%
17:00 +28°C° 2.3 mm 5 mps 746 mmHg 78%
18:00 +27°C° 0.4 mm 4 mps 746 mmHg 82%
19:00 +25°C° 0.4 mm 4 mps 746 mmHg 85%
20:00 +24°C° 0.4 mm 3 mps 746 mmHg 89%
21:00 +22°C° 0.1 mm 3 mps 747 mmHg 91%
22:00 +21°C° 0.1 mm 3 mps 747 mmHg 93%
23:00 +20°C° 0.1 mm 3 mps 747 mmHg 96%
Show more